カタログに戻る

STARLINK-5053

運用中通信VLEO
NORAD 53913·PAYLOAD·🇺🇸 United States

打ち上げ Sep 24, 2022 から Cape Canaveral Space Force Station

Loading…

次のパス (今後24時間)

TLE

最新Source: CelesTrak SupGP

元期: Sep 15, 2026, 02:05 UTC

1 53913C 22119AD  26258.08729167 -.00020013  00000+0 -12551-2 0  2580
2 53913  53.1585 183.2376 0001645  83.0394  62.3975 15.08842291    16

AllMySatでSTARLINK-5053をリアルタイム追跡

Download on the App Store